Wind_Gust
16 14 16 15 14 13 13 11 8 10 9 7 9 8 9 5 5 5 6 6 5 5 4 5 5 6 5 6 5 7 7 6 7 6 7 8 8 7 11 10 9 9
16 16 15 13 11 9 10 12 13 12 11 9 9 7 5 4 4 5 5 5 3 4 4 5 5 5 6 6 6 7 5 5 5 5 6 6 5 5 7 7 6 8
14 14 15 16 17 13 12 10 11 11 11 11 6 6 7 5 6 3 5 5 5 4 4 4 4 4 5 5 5 6 7 6 6 4 4 4 5 5 4 4 6 5
15 18 18 16 15 15 12 12 8 8 6 8 8 8 8 7 6 5 5 5 6 4 4 4 5 3 5 4 4 5 4 5 3 2 4 3 4 4 5 4 4 6
17 15 14 14 13 12 13 13 12 11 10 9 6 6 9 8 7 6 5 4 5 4 3 3 2 3 2 2 3 5 4 5 6 5 6 6 5 3 4 5 6 7
10 13 14 15 14 15 14 14 13 12 10 7 10 8 8 8 8 7 6 6 4 5 3 2 1 1 3 4 5 6 6 8 7 6 6 7 7 5 6 6 6 7
15 13 12 12 13 14 15 13 12 12 12 11 9 9 9 9 7 7 6 6 5 4 4 3 2 2 5 5 5 5 5 5 6 6 7 8 7 8 6 7 9 8
15 13 13 11 13 12 13 13 12 12 11 10 11 9 10 9 8 6 6 6 5 3 2 2 2 2 2 4 3 3 5 4 4 5 6 7 7 8 9 9 8 9
14 14 13 13 13 11 12 13 12 10 11 13 11 10 6 10 9 8 7 6 5 4 4 3 1 1 1 1 1 1 3 5 5 4 5 6 7 8 8 8 9 9
15 13 14 14 13 11 11 10 11 10 9 11 10 10 10 6 8 9 8 8 7 5 5 3 2 2 1 1 1 2 3 5 6 6 6 7 8 8 8 7 7 10
12 14 14 13 12 11 9 9 9 9 7 9 9 8 7 9 7 7 9 8 9 7 6 4 3 3 2 2 4 3 4 5 6 6 7 8 9 10 9 9 11 12
10 8 11 11 12 12 13 11 11 10 9 7 9 10 7 7 9 7 9 8 8 7 6 5 4 4 4 4 4 4 4 5 6 6 7 9 9 10 10 10 11 12
21 22 18 13 14 15 15 14 13 11 11 10 8 10 10 8 7 9 6 9 7 6 6 6 5 4 4 5 5 3 4 5 6 6 7 7 7 9 10 11 11 11
22 22 21 19 16 16 17 17 15 13 11 10 11 12 11 10 10 8 6 7 8 7 6 6 5 5 5 3 4 5 5 6 6 7 9 9 8 9 10 11 12 13
19 20 21 23 22 18 17 17 16 14 13 12 11 11 11 10 8 9 9 7 6 6 5 3 2 2 3 3 5 6 6 8 9 10 11 11 10 10 10 10 10 10
21 21 21 20 20 21 20 19 17 16 15 14 13 13 12 10 9 8 9 9 8 5 5 4 2 3 6 9 8 8 9 10 11 11 11 12 13 13 11 11 11 11
20 22 23 23 21 20 19 20 20 18 17 15 14 13 12 10 10 9 7 8 9 6 3 2 3 5 9 11 12 15 13 11 12 13 11 13 13 13 14 14 12 11
18 24 23 24 24 23 22 21 20 19 18 16 15 13 11 11 10 10 9 8 8 6 3 2 3 6 11 12 14 15 14 16 12 13 13 13 13 14 15 14 14 14
16 13 15 19 22 23 22 21 20 18 17 15 15 12 12 13 12 11 9 7 8 6 3 1 2 7 11 12 13 14 15 15 12 13 15 14 14 15 15 16 15 16
25 23 21 20 19 19 19 18 17 16 15 13 12 11 13 12 10 11 9 9 8 7 5 2 3 6 11 13 14 15 15 14 11 13 13 15 15 16 16 17 17 18
24 25 25 22 19 18 17 16 16 15 13 12 15 15 15 14 13 11 9 9 7 6 5 2 4 9 11 13 14 15 16 13 11 12 13 14 15 15 17 17 17 19
15 22 17 19 17 16 17 15 14 16 15 12 10 10 8 9 6 10 10 8 7 7 5 1 5 9 12 13 15 15 16 13 11 12 14 15 16 15 16 17 17 18
17 16 13 15 22 18 15 13 12 10 10 11 14 12 13 11 12 9 10 10 8 7 6 4 6 9 11 13 14 16 12 11 11 14 14 15 17 15 17 17 17 16
20 22 22 16 12 11 11 11 10 9 12 13 16 13 11 12 10 9 7 9 9 9 8 5 7 9 11 12 14 15 13 14 13 15 16 16 18 16 16 17 17 24
19 20 23 25 21 19 14 12 12 15 12 10 11 12 12 10 9 10 8 7 8 8 9 7 6 7 10 13 14 15 16 13 15 15 18 18 18 19 15 17 18 17
20 19 16 20 21 17 14 16 12 13 12 11 8 10 11 10 9 8 10 11 9 7 8 6 5 7 9 13 13 15 16 18 14 16 19 20 18 20 22 17 17 19
Wind_Speed
9 8 9 8 8 7 7 6 5 5 5 4 5 5 5 3 3 3 4 3 3 3 2 3 3 3 3 4 4 4 4 4 4 4 4 5 5 5 5 5 4 4
9 9 8 8 7 5 6 7 7 7 7 5 6 4 2 2 2 3 4 4 3 3 3 3 3 3 4 4 3 4 3 3 3 2 3 4 3 3 5 4 4 4
7 7 9 10 10 9 8 6 6 7 7 6 4 4 4 3 4 2 3 3 3 3 3 3 3 3 3 4 3 3 3 3 2 1 2 3 2 3 3 3 4 4
8 10 10 10 9 9 7 7 5 4 4 4 5 5 5 4 4 4 3 3 4 3 3 3 3 3 3 3 2 3 3 3 1 1 2 1 1 1 2 2 2 4
10 9 7 8 8 7 8 8 8 6 6 6 4 4 5 5 5 4 4 3 3 3 2 3 2 2 2 1 2 3 3 3 3 3 4 4 2 1 1 2 3 3
6 7 7 7 8 8 8 8 8 7 6 5 6 5 5 5 5 4 4 4 3 3 2 1 1 1 2 3 3 4 4 5 4 4 4 4 4 3 3 3 3 4
10 8 8 7 7 7 9 8 7 7 7 7 5 5 5 5 5 4 4 4 4 3 3 1 0 1 3 3 3 3 3 3 4 4 4 5 4 5 4 4 5 4
10 8 8 7 7 7 7 7 7 7 6 6 7 6 6 6 5 4 4 4 4 3 1 1 1 1 1 2 2 2 3 2 3 3 4 4 4 5 5 5 5 6
8 9 8 8 8 6 6 6 6 5 5 8 6 6 4 6 6 5 5 4 4 3 3 2 1 0 1 1 0 1 2 3 3 3 4 4 4 5 5 5 6 5
6 7 9 9 9 7 6 5 5 5 4 5 5 5 6 4 5 6 5 5 4 4 3 3 2 1 0 0 1 1 2 3 4 4 4 5 5 5 5 4 4 5
2 3 7 7 7 7 7 6 5 5 4 5 5 4 4 5 4 4 5 5 6 5 4 3 2 2 1 1 2 2 2 3 4 4 4 5 5 6 6 5 5 6
8 3 3 5 7 8 9 8 7 6 6 4 6 6 4 4 5 4 5 5 5 5 4 3 3 3 3 3 3 3 2 3 3 4 4 4 5 5 6 6 6 7
13 14 12 9 9 9 9 8 8 7 7 6 5 7 6 5 4 5 4 6 5 4 4 4 3 3 3 3 3 2 2 3 4 4 4 4 4 5 5 5 6 6
12 12 13 12 10 10 10 10 10 8 7 7 7 7 7 7 6 5 4 4 5 4 4 4 3 3 3 2 2 2 3 4 4 4 5 5 5 5 5 5 5 6
5 8 11 14 14 12 11 11 10 9 8 8 7 7 6 7 5 6 6 4 4 4 3 1 2 1 1 1 3 4 4 5 5 6 6 7 6 6 6 6 6 6
12 12 11 11 12 12 12 12 11 10 9 8 8 8 7 6 6 5 6 5 5 4 3 3 1 0 2 5 6 4 5 5 6 6 7 7 8 8 7 7 7 6
11 11 11 11 12 12 11 12 12 11 10 9 9 8 8 6 6 5 5 5 6 4 3 1 0 1 4 6 7 9 6 5 6 7 7 8 8 8 8 8 7 7
1 1 8 8 11 13 13 12 12 12 11 10 9 8 7 7 7 6 6 5 5 4 2 1 0 3 5 6 8 9 8 6 5 6 6 7 7 8 8 8 8 8
10 9 7 10 11 11 10 11 11 11 11 10 9 7 7 8 7 7 6 4 5 4 2 1 0 3 6 7 8 9 10 8 5 5 7 7 8 9 9 9 9 9
12 13 12 11 10 8 8 9 10 10 9 7 7 7 7 7 6 7 6 5 5 5 3 1 0 4 6 8 9 10 10 9 5 6 6 7 8 9 9 10 10 10
2 6 10 13 11 11 10 9 10 9 9 7 8 9 9 8 8 7 5 5 5 4 3 1 1 6 7 9 9 10 11 8 5 6 6 7 8 9 10 10 10 10
8 5 1 1 6 7 9 7 7 9 9 7 6 6 5 6 4 6 6 5 5 4 3 1 2 7 8 9 10 10 11 6 5 6 7 8 9 9 9 9 9 10
7 7 7 8 12 11 9 7 7 6 7 6 8 7 7 7 7 5 6 6 5 4 4 2 3 7 8 9 9 10 7 5 5 6 7 8 9 9 9 9 9 9
11 13 13 9 7 7 6 6 6 5 6 6 9 8 7 7 6 5 4 5 6 6 5 3 4 6 8 8 9 10 8 6 6 7 8 9 10 9 8 9 9 18
11 12 13 14 13 11 8 8 7 9 7 6 7 7 7 6 5 6 4 4 5 5 7 5 4 5 7 8 9 10 8 5 6 7 9 10 9 10 8 9 10 11
9 9 8 12 11 9 7 8 7 7 7 7 5 6 6 6 5 5 6 7 6 4 5 4 4 4 4 9 9 10 11 8 6 7 10 11 10 10 11 9 9 10
Wind_Direction
170 172 173 179 186 184 175 177 190 177 183 177 181 197 196 204 152 133 128 123 131 132 127 92 85 76 87 83 72 63 50 38 29 16 29 28 23 20 17 10 16 15
181 176 176 174 179 182 182 181 179 180 184 186 194 181 187 147 163 143 136 124 102 102 85 70 57 64 69 73 79 88 85 70 47 0 30 30 16 21 8 1 4 4
177 175 172 178 184 185 182 186 182 186 177 191 176 164 171 160 148 133 133 130 121 103 88 85 72 73 74 67 63 55 45 44 56 24 71 26 7 22 357 351 356 3
191 184 183 185 179 181 176 172 187 186 166 150 184 179 160 154 143 143 153 135 129 118 107 100 112 100 90 88 77 56 39 9 0 49 41 28 3 4 338 339 349 337
189 190 190 182 182 174 166 174 179 179 176 182 150 146 142 140 142 145 137 121 119 105 90 90 80 81 80 78 56 22 0 348 335 355 349 333 315 325 299 334 329 322
192 190 185 180 179 170 175 179 179 172 168 160 173 151 146 145 145 146 139 119 102 111 94 65 38 11 23 25 26 19 5 351 332 346 338 324 316 319 318 321 315 313
183 179 183 179 174 178 175 178 173 170 172 170 144 153 144 144 146 142 131 129 126 123 130 138 69 11 19 40 34 9 349 340 328 335 333 321 322 320 323 319 315 309
180 176 170 166 169 175 175 171 167 169 163 147 157 160 150 146 143 137 131 128 123 125 104 67 61 49 29 47 15 0 332 329 329 322 321 311 321 316 318 315 312 310
173 170 165 167 164 170 170 168 164 156 155 152 151 149 146 143 144 140 133 121 111 104 95 96 106 85 29 80 87 324 306 313 305 307 295 294 297 294 296 303 309 307
183 168 164 164 164 163 161 161 153 148 147 142 141 137 138 132 130 131 123 118 115 113 117 120 102 74 24 234 278 272 288 287 301 301 295 288 286 284 283 279 277 295
233 186 167 162 153 148 149 146 143 136 138 136 128 127 127 119 105 117 115 121 130 133 122 125 158 177 199 282 288 264 257 277 285 289 286 288 284 283 277 268 274 280
146 154 180 162 151 149 148 147 143 143 138 137 136 127 112 109 124 120 130 131 129 134 143 162 175 185 195 226 238 245 250 260 265 269 277 279 284 283 278 275 277 278
170 166 163 168 164 156 148 145 146 148 143 140 135 131 129 123 128 126 131 130 136 133 152 170 182 191 206 220 230 236 255 266 274 273 273 274 272 275 281 294 296 298
171 166 160 163 161 155 153 150 146 145 140 136 134 133 137 143 145 138 137 124 144 148 165 164 169 185 218 233 245 259 261 264 265 273 273 273 274 273 275 275 278 284
188 188 172 158 154 153 151 149 146 142 139 139 139 139 143 147 142 135 133 129 141 145 141 120 149 222 264 293 297 294 279 279 282 279 279 278 275 271 268 268 269 268
177 176 171 159 152 155 155 148 143 143 142 142 143 145 145 141 138 145 147 146 124 118 144 153 171 222 276 296 300 294 295 294 290 285 282 279 280 279 274 267 263 262
175 177 162 160 158 155 153 151 148 145 144 142 144 148 147 146 139 130 125 136 137 129 111 105 45 303 315 314 314 311 308 299 291 289 283 280 277 275 276 273 267 258
138 224 155 170 165 163 160 156 148 144 144 147 148 148 142 131 127 139 144 137 124 119 109 101 306 282 310 319 316 313 308 302 297 293 293 287 281 278 275 274 272 268
157 175 192 184 183 171 157 147 145 144 142 142 154 148 132 133 144 138 142 140 126 125 128 168 231 292 309 306 298 298 298 300 294 290 291 291 287 283 279 277 275 273
175 177 181 185 168 156 146 146 140 140 143 139 124 125 132 135 142 142 145 140 138 143 158 163 236 282 284 285 289 289 292 296 289 287 284 283 285 282 280 278 275 275
228 213 197 179 160 154 150 148 142 128 127 133 140 146 146 150 154 149 151 146 148 142 141 181 226 265 272 277 282 286 288 295 282 279 280 281 279 277 274 274 274 273
147 130 23 328 108 123 127 133 131 134 135 133 128 132 134 138 147 141 149 154 147 141 156 198 255 258 267 273 279 286 293 294 285 279 282 281 279 277 276 275 274 272
136 124 131 169 149 136 131 127 117 117 122 130 131 145 152 165 165 172 163 147 156 168 168 207 246 261 263 273 283 292 298 285 281 282 280 281 276 276 277 277 276 275
147 144 141 132 94 87 98 102 101 107 134 146 145 159 172 180 174 158 152 155 165 179 183 194 237 255 265 280 289 293 292 288 284 286 285 281 283 276 277 277 275 280
156 155 153 142 134 138 133 123 144 152 167 159 164 168 175 171 165 155 163 187 192 184 200 204 229 258 274 283 288 292 295 289 289 290 290 287 286 286 276 275 277 279
137 130 126 118 110 109 139 158 160 140 159 170 174 169 160 175 165 158 169 196 203 198 218 216 221 256 267 276 285 289 291 293 290 293 290 290 288 286 289 280 270 273